| time (UTC) | temp F | wind direction | speed MPH | gust MPH | rain 1hr in | rain 24hr in | rain mn in | humidity % | barometer mb |
| 20260509040548 | 54 | 173 | 0.0 | 0.0 | 0.05 | 0.00 | 0.00 | 99 | 1006.9 |
| 20260509040044 | 54 | 189 | 0.0 | 0.0 | 0.05 | 0.51 | 0.51 | 99 | 1006.9 |
| 20260509035541 | 54 | 172 | 0.0 | 0.0 | 0.00 | 0.50 | 0.50 | 99 | 1006.8 |
| 20260509035038 | 54 | 189 | 0.0 | 0.0 | 0.00 | 0.50 | 0.50 | 99 | 1006.9 |
| 20260509034536 | 54 | 197 | 0.0 | 0.0 | 0.00 | 0.50 | 0.50 | 99 | 1006.6 |
| 20260509034033 | 54 | 170 | 0.0 | 0.0 | 0.00 | 0.50 | 0.50 | 99 | 1006.8 |
| 20260509033530 | 54 | 179 | 0.0 | 0.0 | 0.00 | 0.50 | 0.50 | 99 | 1006.9 |
| 20260509033027 | 54 | 164 | 0.0 | 0.0 | 0.00 | 0.50 | 0.50 | 99 | 1006.7 |
| 20260509032524 | 54 | 174 | 0.0 | 0.0 | 0.00 | 0.50 | 0.50 | 99 | 1006.7 |
| 20260509032021 | 54 | 175 | 0.0 | 0.0 | 0.00 | 0.50 | 0.50 | 99 | 1006.6 |
| 20260509031519 | 54 | 187 | 0.0 | 0.0 | 0.00 | 0.50 | 0.50 | 99 | 1006.6 |
| 20260509031016 | 54 | 200 | 0.0 | 0.0 | 0.07 | 0.50 | 0.50 | 99 | 1006.6 |
| 20260509030514 | 54 | 199 | 0.0 | 0.0 | 0.07 | 0.50 | 0.50 | 99 | 1006.7 |
| 20260509030010 | 54 | 223 | 0.0 | 0.0 | 0.05 | 0.49 | 0.49 | 99 | 1006.8 |
| 20260509025506 | 54 | 179 | 0.0 | 0.0 | 0.05 | 0.49 | 0.49 | 99 | 1006.5 |
| 20260509025002 | 54 | 176 | 0.0 | 0.0 | 0.00 | 0.48 | 0.48 | 99 | 1006.9 |
| 20260509024458 | 54 | 185 | 0.0 | 0.0 | 0.00 | 0.48 | 0.48 | 99 | 1006.9 |
| 20260509023954 | 54 | 176 | 0.0 | 0.0 | 0.00 | 0.48 | 0.48 | 99 | 1006.9 |
| 20260509023452 | 54 | 196 | 0.0 | 0.0 | 0.07 | 0.48 | 0.48 | 99 | 1007.0 |
| 20260509022949 | 54 | 188 | 0.0 | 0.0 | 0.07 | 0.48 | 0.48 | 99 | 1007.1 |
| 20260509022446 | 54 | 185 | 0.0 | 0.0 | 0.00 | 0.47 | 0.47 | 99 | 1007.0 |
| 20260509021943 | 54 | 207 | 0.0 | 0.0 | 0.00 | 0.47 | 0.47 | 99 | 1007.1 |
| 20260509021440 | 54 | 220 | 0.0 | 0.0 | 0.00 | 0.47 | 0.47 | 99 | 1007.2 |
| 20260509020937 | 54 | 221 | 0.0 | 0.0 | 0.05 | 0.47 | 0.47 | 99 | 1007.0 |
| 20260509020436 | 55 | 180 | 0.0 | 0.0 | 0.05 | 0.47 | 0.47 | 99 | 1006.9 |
| 20260509015932 | 55 | 247 | 0.0 | 0.0 | 0.12 | 0.47 | 0.47 | 99 | 1007.1 |
| 20260509015431 | 55 | 249 | 0.0 | 0.0 | 0.07 | 0.46 | 0.46 | 99 | 1007.1 |
| 20260509014927 | 55 | 244 | 0.0 | 0.0 | 0.05 | 0.45 | 0.45 | 99 | 1007.0 |
| 20260509014424 | 55 | 220 | 3.0 | 3.0 | 0.05 | 0.45 | 0.45 | 99 | 1007.1 |
| 20260509013920 | 55 | 243 | 2.0 | 2.0 | 0.00 | 0.44 | 0.44 | 99 | 1007.1 |
| 20260509013417 | 55 | 201 | 0.0 | 0.0 | 0.07 | 0.44 | 0.44 | 99 | 1006.8 |
| 20260509012913 | 55 | 194 | 0.0 | 0.0 | 0.07 | 0.44 | 0.44 | 99 | 1006.9 |
| 20260509012410 | 55 | 248 | 0.0 | 1.0 | 0.00 | 0.43 | 0.43 | 99 | 1006.9 |
| 20260509011907 | 55 | 200 | 1.0 | 1.0 | 0.00 | 0.43 | 0.43 | 99 | 1006.8 |
| 20260509011404 | 55 | 236 | 0.0 | 1.0 | 0.00 | 0.43 | 0.43 | 99 | 1006.9 |
| 20260509010902 | 55 | 244 | 0.0 | 0.0 | 0.05 | 0.43 | 0.43 | 99 | 1006.7 |
| 20260509010400 | 55 | 245 | 0.0 | 0.0 | 0.05 | 0.43 | 0.43 | 99 | 1007.1 |
| 20260509005856 | 55 | 247 | 1.0 | 2.0 | 0.07 | 0.42 | 0.42 | 99 | 1006.8 |
| 20260509005354 | 55 | 243 | 1.0 | 2.0 | 0.07 | 0.42 | 0.42 | 99 | 1006.9 |
| 20260509004849 | 55 | 241 | 0.0 | 0.0 | 0.07 | 0.41 | 0.41 | 99 | 1007.1 |
| 20260509004346 | 55 | 243 | 0.0 | 0.0 | 0.07 | 0.41 | 0.41 | 99 | 1007.0 |
| 20260509003843 | 55 | 255 | 0.0 | 0.0 | 0.05 | 0.40 | 0.40 | 99 | 1006.8 |
| 20260509003341 | 55 | 220 | 0.0 | 0.0 | 0.05 | 0.40 | 0.40 | 99 | 1006.9 |
| 20260509002838 | 55 | 228 | 0.0 | 0.0 | 0.00 | 0.39 | 0.39 | 99 | 1006.8 |
| 20260509002335 | 55 | 204 | 0.0 | 0.0 | 0.07 | 0.39 | 0.39 | 99 | 1006.7 |
| 20260509001833 | 55 | 217 | 0.0 | 0.0 | 0.07 | 0.39 | 0.39 | 99 | 1007.0 |
| 20260509001328 | 55 | 186 | 0.0 | 0.0 | 0.05 | 0.38 | 0.38 | 99 | 1007.0 |
| 20260509000826 | 55 | 204 | 0.0 | 0.0 | 0.05 | 0.38 | 0.38 | 99 | 1006.8 |
| 20260509000325 | 55 | 250 | 0.0 | 0.0 | 0.17 | 0.38 | 0.38 | 99 | 1007.1 |
| 20260508235820 | 55 | 268 | 0.0 | 0.0 | 0.19 | 0.37 | 0.37 | 99 | 1006.8 |
| 20260508235317 | 55 | 204 | 0.0 | 0.0 | 0.12 | 0.35 | 0.35 | 99 | 1007.0 |
| 20260508234814 | 55 | 191 | 0.0 | 0.0 | 0.17 | 0.34 | 0.34 | 99 | 1007.2 |
| 20260508234310 | 55 | 255 | 0.0 | 0.0 | 0.19 | 0.33 | 0.33 | 99 | 1007.4 |
| 20260508233809 | 55 | 227 | 0.0 | 0.0 | 0.12 | 0.32 | 0.32 | 99 | 1007.4 |
| 20260508233308 | 55 | 184 | 0.0 | 0.0 | 0.12 | 0.31 | 0.31 | 99 | 1007.0 |
| 20260508232805 | 55 | 189 | 0.0 | 0.0 | 0.12 | 0.30 | 0.30 | 99 | 1007.2 |
| 20260508232301 | 55 | 190 | 0.0 | 0.0 | 0.14 | 0.29 | 0.29 | 99 | 1007.1 |
| 20260508231800 | 55 | 195 | 0.0 | 0.0 | 0.07 | 0.28 | 0.28 | 99 | 1007.2 |
| 20260508231255 | 55 | 186 | 0.0 | 0.0 | 0.05 | 0.27 | 0.27 | 99 | 1007.1 |
| 20260508230752 | 55 | 172 | 0.0 | 0.0 | 0.12 | 0.27 | 0.27 | 99 | 1006.9 |
| 20260508230248 | 55 | 171 | 0.0 | 0.0 | 0.19 | 0.26 | 0.26 | 99 | 1007.0 |
| 20260508225746 | 55 | 170 | 0.0 | 0.0 | 0.28 | 0.25 | 0.25 | 99 | 1007.3 |
| 20260508225242 | 55 | 157 | 0.0 | 0.0 | 0.24 | 0.23 | 0.23 | 99 | 1007.6 |
| 20260508224740 | 55 | 192 | 0.0 | 0.0 | 0.12 | 0.21 | 0.21 | 99 | 1007.8 |
| 20260508224238 | 55 | 183 | 0.0 | 0.0 | 0.05 | 0.19 | 0.19 | 98 | 1007.7 |
| 20260508223735 | 55 | 160 | 0.0 | 0.0 | 0.05 | 0.19 | 0.19 | 98 | 1007.3 |
| 20260508223232 | 55 | 149 | 0.0 | 0.0 | 0.07 | 0.18 | 0.18 | 98 | 1007.4 |
| 20260508222730 | 55 | 144 | 0.0 | 0.0 | 0.12 | 0.18 | 0.18 | 98 | 1007.3 |
| 20260508222227 | 55 | 144 | 0.0 | 0.0 | 0.19 | 0.17 | 0.17 | 98 | 1007.2 |
| 20260508221723 | 55 | 144 | 0.0 | 0.0 | 0.19 | 0.16 | 0.16 | 98 | 1007.6 |
| 20260508221219 | 55 | 144 | 0.0 | 0.0 | 0.12 | 0.15 | 0.15 | 98 | 1007.4 |
| 20260508220715 | 56 | 154 | 0.0 | 0.0 | 0.12 | 0.14 | 0.14 | 98 | 1007.3 |
| 20260508220212 | 56 | 151 | 0.0 | 0.0 | 0.12 | 0.13 | 0.13 | 97 | 1007.4 |
| 20260508215708 | 56 | 168 | 0.0 | 0.0 | 0.17 | 0.12 | 0.12 | 97 | 1007.6 |
| 20260508215205 | 56 | 172 | 0.0 | 0.0 | 0.24 | 0.11 | 0.11 | 97 | 1007.6 |
| 20260508214702 | 56 | 171 | 0.0 | 0.0 | 0.24 | 0.09 | 0.09 | 97 | 1007.6 |
| 20260508214200 | 56 | 178 | 0.0 | 0.0 | 0.19 | 0.07 | 0.07 | 96 | 1007.7 |
| 20260508213656 | 56 | 155 | 0.0 | 0.0 | 0.19 | 0.06 | 0.06 | 96 | 1007.8 |
| 20260508213152 | 57 | 161 | 0.0 | 0.0 | 0.12 | 0.04 | 0.04 | 95 | 1007.7 |
| 20260508212649 | 57 | 163 | 0.0 | 0.0 | 0.05 | 0.03 | 0.03 | 94 | 1007.3 |
| 20260508212146 | 57 | 142 | 0.0 | 0.0 | 0.00 | 0.02 | 0.02 | 93 | 1007.3 |
| 20260508211641 | 57 | 136 | 0.0 | 0.0 | 0.07 | 0.02 | 0.02 | 92 | 1007.1 |
| 20260508211137 | 57 | 148 | 0.0 | 0.0 | 0.07 | 0.02 | 0.02 | 90 | 1007.1 |
| 20260508210634 | 58 | 114 | 0.0 | 1.0 | 0.00 | 0.01 | 0.01 | 88 | 1006.9 |
| 20260508210132 | 59 | 136 | 0.0 | 0.0 | 0.00 | 0.01 | 0.01 | 86 | 1007.1 |
| 20260508205629 | 60 | 147 | 0.0 | 0.0 | 0.05 | 0.01 | 0.01 | 83 | 1007.2 |
| 20260508205125 | 60 | 149 | 0.0 | 0.0 | 0.05 | 0.01 | 0.01 | 81 | 1007.1 |
| 20260508204621 | 60 | 154 | 0.0 | 0.0 | 0.00 | 0.00 | 0.00 | 77 | 1007.0 |
| 20260508204117 | 61 | 189 | 1.0 | 1.0 | 0.00 | 0.00 | 0.00 | 77 | 1007.2 |
| 20260508203614 | 62 | 186 | 1.0 | 1.0 | 0.00 | 0.00 | 0.00 | 76 | 1006.9 |
| 20260508203110 | 62 | 155 | 0.0 | 1.0 | 0.00 | 0.00 | 0.00 | 72 | 1006.9 |
| 20260508202606 | 63 | 193 | 2.0 | 2.0 | 0.00 | 0.00 | 0.00 | 70 | 1006.9 |
| 20260508202104 | 63 | 182 | 1.0 | 1.0 | 0.00 | 0.00 | 0.00 | 69 | 1006.8 |
| 20260508201600 | 63 | 160 | 0.0 | 0.0 | 0.00 | 0.00 | 0.00 | 67 | 1006.9 |
| 20260508201057 | 64 | 224 | 2.0 | 2.0 | 0.00 | 0.00 | 0.00 | 64 | 1007.1 |
| 20260508200554 | 63 | 200 | 1.0 | 1.0 | 0.00 | 0.00 | 0.00 | 67 | 1007.2 |
| 20260508200049 | 64 | 259 | 3.0 | 3.0 | 0.00 | 0.00 | 0.00 | 61 | 1006.9 |
| 20260508195546 | 64 | 232 | 3.0 | 3.0 | 0.00 | 0.00 | 0.00 | 61 | 1007.3 |
| 20260508195043 | 64 | 246 | 3.0 | 3.0 | 0.00 | 0.00 | 0.00 | 62 | 1007.0 |
| 20260508194540 | 64 | 248 | 3.0 | 3.0 | 0.00 | 0.00 | 0.00 | 63 | 1007.0 |
| 20260508194037 | 64 | 247 | 3.0 | 3.0 | 0.00 | 0.00 | 0.00 | 60 | 1007.4 |
| 20260508193533 | 64 | 165 | 2.0 | 2.0 | 0.00 | 0.00 | 0.00 | 66 | 1007.4 |
| 20260508193030 | 64 | 208 | 2.0 | 2.0 | 0.00 | 0.00 | 0.00 | 66 | 1007.6 |
| 20260508192527 | 65 | 188 | 2.0 | 2.0 | 0.00 | 0.00 | 0.00 | 63 | 1007.5 |
| 20260508192024 | 65 | 173 | 2.0 | 2.0 | 0.00 | 0.00 | 0.00 | 64 | 1007.5 |
| 20260508191521 | 65 | 199 | 1.0 | 1.0 | 0.00 | 0.00 | 0.00 | 67 | 1007.7 |
| 20260508191017 | 63 | 248 | 2.0 | 2.0 | 0.00 | 0.00 | 0.00 | 66 | 1007.9 |
| 20260508190515 | 63 | 179 | 0.0 | 1.0 | 0.00 | 0.00 | 0.00 | 67 | 1007.9 |
| 20260508190011 | 64 | 203 | 1.0 | 1.0 | 0.00 | 0.00 | 0.00 | 67 | 1007.8 |
| 20260508185508 | 64 | 202 | 1.0 | 1.0 | 0.00 | 0.00 | 0.00 | 65 | 1008.0 |
| 20260508185006 | 63 | 180 | 1.0 | 1.0 | 0.00 | 0.00 | 0.00 | 66 | 1008.2 |
| 20260508184504 | 63 | 249 | 2.0 | 2.0 | 0.00 | 0.00 | 0.00 | 66 | 1008.3 |
| 20260508184000 | 63 | 225 | 1.0 | 2.0 | 0.00 | 0.00 | 0.00 | 66 | 1008.7 |
| 20260508183456 | 63 | 239 | 2.0 | 2.0 | 0.00 | 0.00 | 0.00 | 64 | 1008.3 |
| 20260508182951 | 62 | 272 | 3.0 | 3.0 | 0.00 | 0.00 | 0.00 | 65 | 1008.4 |
| 20260508182449 | 62 | 201 | 1.0 | 1.0 | 0.00 | 0.00 | 0.00 | 67 | 1008.7 |
| 20260508181944 | 62 | 242 | 3.0 | 3.0 | 0.00 | 0.00 | 0.00 | 66 | 1008.6 |
| 20260508181441 | 62 | 247 | 2.0 | 2.0 | 0.00 | 0.00 | 0.00 | 67 | 1008.7 |
| 20260508180938 | 62 | 264 | 3.0 | 3.0 | 0.00 | 0.00 | 0.00 | 65 | 1008.4 |
| 20260508180435 | 63 | 215 | 3.0 | 3.0 | 0.00 | 0.00 | 0.00 | 67 | 1008.6 |
| 20260508175931 | 63 | 258 | 5.0 | 6.0 | 0.00 | 0.00 | 0.00 | 65 | 1008.9 |
| 20260508175427 | 64 | 223 | 2.0 | 2.0 | 0.00 | 0.00 | 0.00 | 64 | 1008.8 |
| 20260508174926 | 64 | 250 | 3.0 | 3.0 | 0.00 | 0.00 | 0.00 | 66 | 1008.9 |
| 20260508174423 | 64 | 289 | 3.0 | 3.0 | 0.00 | 0.00 | 0.00 | 67 | 1008.9 |
| 20260508173919 | 64 | 248 | 4.0 | 5.0 | 0.00 | 0.00 | 0.00 | 64 | 1009.0 |
| 20260508173417 | 63 | 265 | 4.0 | 5.0 | 0.00 | 0.00 | 0.00 | 64 | 1009.1 |
| 20260508172912 | 63 | 197 | 3.0 | 3.0 | 0.00 | 0.00 | 0.00 | 64 | 1009.2 |
| 20260508172410 | 63 | 223 | 2.0 | 2.0 | 0.00 | 0.00 | 0.00 | 65 | 1009.4 |
| 20260508171906 | 62 | 239 | 3.0 | 5.0 | 0.00 | 0.00 | 0.00 | 62 | 1009.5 |
| 20260508171403 | 62 | 244 | 3.0 | 3.0 | 0.00 | 0.00 | 0.00 | 63 | 1009.1 |
| 20260508170859 | 62 | 247 | 4.0 | 5.0 | 0.00 | 0.00 | 0.00 | 69 | 1009.3 |
| 20260508170357 | 63 | 258 | 3.0 | 5.0 | 0.00 | 0.00 | 0.00 | 67 | 1009.3 |
| 20260508165853 | 64 | 249 | 3.0 | 3.0 | 0.00 | 0.00 | 0.00 | 61 | 1009.4 |
| 20260508165351 | 64 | 224 | 3.0 | 3.0 | 0.00 | 0.00 | 0.00 | 63 | 1009.7 |
| 20260508164847 | 65 | 244 | 4.0 | 5.0 | 0.00 | 0.00 | 0.00 | 61 | 1009.6 |
| 20260508164344 | 65 | 255 | 4.0 | 5.0 | 0.00 | 0.00 | 0.00 | 61 | 1009.6 |
| 20260508163841 | 66 | 230 | 4.0 | 5.0 | 0.00 | 0.00 | 0.00 | 61 | 1009.7 |
| 20260508163339 | 65 | 292 | 4.0 | 5.0 | 0.00 | 0.00 | 0.00 | 61 | 1009.9 |
| 20260508162834 | 63 | 242 | 2.0 | 3.0 | 0.00 | 0.00 | 0.00 | 62 | 1009.7 |
| 20260508162331 | 63 | 255 | 4.0 | 6.0 | 0.00 | 0.00 | 0.00 | 61 | 1010.0 |
| 20260508161829 | 63 | 249 | 3.0 | 3.0 | 0.00 | 0.00 | 0.00 | 64 | 1010.2 |
| 20260508161326 | 63 | 263 | 3.0 | 3.0 | 0.00 | 0.00 | 0.00 | 65 | 1010.2 |
| 20260508160823 | 64 | 233 | 4.0 | 5.0 | 0.00 | 0.00 | 0.00 | 64 | 1010.1 |
| 20260508160322 | 64 | 240 | 5.0 | 6.0 | 0.00 | 0.00 | 0.00 | 60 | 1010.2 |
| 20260508155818 | 65 | 212 | 3.0 | 3.0 | 0.00 | 0.00 | 0.00 | 61 | 1010.2 |
| 20260508155315 | 63 | 257 | 4.0 | 5.0 | 0.00 | 0.00 | 0.00 | 60 | 1010.0 |
| 20260508154812 | 63 | 246 | 5.0 | 6.0 | 0.00 | 0.00 | 0.00 | 62 | 1010.1 |
| 20260508154310 | 63 | 250 | 3.0 | 5.0 | 0.00 | 0.00 | 0.00 | 64 | 1010.2 |
| 20260508153806 | 64 | 227 | 4.0 | 5.0 | 0.00 | 0.00 | 0.00 | 61 | 1010.4 |
| 20260508153304 | 65 | 251 | 4.0 | 5.0 | 0.00 | 0.00 | 0.00 | 58 | 1010.1 |
| 20260508152759 | 63 | 229 | 3.0 | 5.0 | 0.00 | 0.00 | 0.00 | 62 | 1010.2 |
| 20260508152256 | 63 | 260 | 4.0 | 5.0 | 0.00 | 0.00 | 0.00 | 61 | 1010.3 |
| 20260508151752 | 63 | 293 | 5.0 | 6.0 | 0.00 | 0.00 | 0.00 | 63 | 1010.2 |
| 20260508151249 | 61 | 239 | 5.0 | 5.0 | 0.00 | 0.00 | 0.00 | 63 | 1010.1 |
| 20260508150745 | 61 | 263 | 3.0 | 5.0 | 0.00 | 0.00 | 0.00 | 64 | 1010.4 |
| 20260508150242 | 62 | 254 | 3.0 | 3.0 | 0.00 | 0.00 | 0.00 | 61 | 1010.4 |
| 20260508145738 | 63 | 265 | 4.0 | 5.0 | 0.00 | 0.00 | 0.00 | 65 | 1010.5 |
| 20260508145235 | 63 | 230 | 4.0 | 6.0 | 0.00 | 0.00 | 0.00 | 62 | 1010.3 |
| 20260508144731 | 62 | 169 | 3.0 | 5.0 | 0.00 | 0.00 | 0.00 | 63 | 1010.3 |
| 20260508144230 | 63 | 231 | 3.0 | 3.0 | 0.00 | 0.00 | 0.00 | 62 | 1010.4 |
| 20260508143727 | 62 | 221 | 3.0 | 5.0 | 0.00 | 0.00 | 0.00 | 62 | 1010.5 |
| 20260508143224 | 61 | 262 | 6.0 | 8.0 | 0.00 | 0.00 | 0.00 | 63 | 1010.4 |
| 20260508142720 | 61 | 258 | 6.0 | 8.0 | 0.00 | 0.00 | 0.00 | 64 | 1010.4 |
| 20260508142217 | 62 | 227 | 2.0 | 3.0 | 0.00 | 0.00 | 0.00 | 64 | 1010.7 |
| 20260508141713 | 61 | 263 | 5.0 | 6.0 | 0.00 | 0.00 | 0.00 | 64 | 1010.7 |
| 20260508141211 | 62 | 216 | 2.0 | 2.0 | 0.00 | 0.00 | 0.00 | 62 | 1010.7 |
| 20260508140708 | 61 | 250 | 4.0 | 5.0 | 0.00 | 0.00 | 0.00 | 63 | 1010.6 |
| 20260508140205 | 61 | 244 | 4.0 | 5.0 | 0.00 | 0.00 | 0.00 | 64 | 1010.8 |
| 20260508135701 | 60 | 225 | 3.0 | 5.0 | 0.00 | 0.00 | 0.00 | 63 | 1010.7 |
| 20260508135202 | 59 | 263 | 5.0 | 7.0 | 0.00 | 0.00 | 0.00 | 64 | 1010.6 |
| 20260508134658 | 59 | 257 | 7.0 | 8.0 | 0.00 | 0.00 | 0.00 | 65 | 1010.9 |
| 20260508134155 | 59 | 230 | 3.0 | 3.0 | 0.00 | 0.00 | 0.00 | 64 | 1010.8 |
| 20260508133652 | 58 | 244 | 4.0 | 5.0 | 0.00 | 0.00 | 0.00 | 66 | 1010.9 |
| 20260508133150 | 57 | 229 | 3.0 | 5.0 | 0.00 | 0.00 | 0.00 | 66 | 1010.9 |
| 20260508132647 | 57 | 248 | 4.0 | 5.0 | 0.00 | 0.00 | 0.00 | 67 | 1011.1 |
| 20260508132144 | 57 | 241 | 3.0 | 5.0 | 0.00 | 0.00 | 0.00 | 69 | 1010.9 |
| 20260508131640 | 56 | 251 | 3.0 | 3.0 | 0.00 | 0.00 | 0.00 | 66 | 1010.9 |
| 20260508131136 | 56 | 243 | 4.0 | 5.0 | 0.00 | 0.00 | 0.00 | 67 | 1011.1 |
| 20260508130633 | 55 | 234 | 3.0 | 3.0 | 0.00 | 0.00 | 0.00 | 69 | 1010.9 |
| 20260508130130 | 55 | 243 | 5.0 | 6.0 | 0.00 | 0.00 | 0.00 | 67 | 1011.1 |
| 20260508125625 | 54 | 236 | 5.0 | 6.0 | 0.00 | 0.00 | 0.00 | 69 | 1011.0 |
| 20260508125123 | 54 | 231 | 3.0 | 3.0 | 0.00 | 0.00 | 0.00 | 68 | 1011.0 |
| 20260508124621 | 54 | 215 | 2.0 | 2.0 | 0.00 | 0.00 | 0.00 | 68 | 1010.8 |
| 20260508124118 | 53 | 241 | 3.0 | 3.0 | 0.00 | 0.00 | 0.00 | 68 | 1011.0 |
| 20260508123616 | 53 | 244 | 3.0 | 3.0 | 0.00 | 0.00 | 0.00 | 68 | 1010.9 |
| 20260508123113 | 53 | 254 | 4.0 | 5.0 | 0.00 | 0.00 | 0.00 | 69 | 1010.8 |
| 20260508122609 | 52 | 237 | 2.0 | 2.0 | 0.00 | 0.00 | 0.00 | 71 | 1010.9 |
| 20260508122107 | 52 | 218 | 2.0 | 2.0 | 0.00 | 0.00 | 0.00 | 71 | 1010.8 |
| 20260508121605 | 52 | 238 | 3.0 | 3.0 | 0.00 | 0.00 | 0.00 | 69 | 1010.8 |
| 20260508121103 | 51 | 251 | 3.0 | 5.0 | 0.00 | 0.00 | 0.00 | 73 | 1011.0 |
| 20260508120600 | 51 | 252 | 3.0 | 3.0 | 0.00 | 0.00 | 0.00 | 72 | 1011.1 |
| 20260508120058 | 51 | 247 | 4.0 | 5.0 | 0.00 | 0.00 | 0.00 | 71 | 1010.8 |
| 20260508115555 | 50 | 240 | 2.0 | 2.0 | 0.00 | 0.00 | 0.00 | 73 | 1010.9 |
| 20260508115051 | 50 | 256 | 3.0 | 3.0 | 0.00 | 0.00 | 0.00 | 72 | 1010.8 |
| 20260508114549 | 50 | 265 | 2.0 | 3.0 | 0.00 | 0.00 | 0.00 | 73 | 1010.8 |
| 20260508114045 | 50 | 233 | 2.0 | 3.0 | 0.00 | 0.00 | 0.00 | 72 | 1010.9 |
| 20260508113542 | 50 | 199 | 1.0 | 1.0 | 0.00 | 0.00 | 0.00 | 72 | 1010.9 |
| 20260508113040 | 50 | 255 | 2.0 | 2.0 | 0.00 | 0.00 | 0.00 | 74 | 1010.7 |
| 20260508112536 | 49 | 227 | 3.0 | 3.0 | 0.00 | 0.00 | 0.00 | 73 | 1010.7 |
| 20260508112033 | 49 | 254 | 2.0 | 2.0 | 0.00 | 0.00 | 0.00 | 73 | 1010.7 |
| 20260508111530 | 49 | 250 | 3.0 | 3.0 | 0.00 | 0.00 | 0.00 | 74 | 1010.8 |
| 20260508111027 | 49 | 188 | 2.0 | 2.0 | 0.00 | 0.00 | 0.00 | 72 | 1010.5 |
| 20260508110525 | 49 | 197 | 1.0 | 1.0 | 0.00 | 0.00 | 0.00 | 74 | 1010.9 |
| 20260508110021 | 49 | 230 | 3.0 | 3.0 | 0.00 | 0.00 | 0.00 | 73 | 1010.7 |
| 20260508105516 | 49 | 250 | 3.0 | 3.0 | 0.00 | 0.00 | 0.00 | 73 | 1010.8 |
| 20260508105014 | 49 | 244 | 2.0 | 2.0 | 0.00 | 0.00 | 0.00 | 73 | 1010.8 |
| 20260508104511 | 49 | 247 | 2.0 | 2.0 | 0.00 | 0.00 | 0.00 | 74 | 1010.6 |
| 20260508104007 | 49 | 183 | 1.0 | 1.0 | 0.00 | 0.00 | 0.00 | 73 | 1010.8 |
| 20260508103504 | 49 | 201 | 1.0 | 1.0 | 0.00 | 0.00 | 0.00 | 73 | 1010.5 |
| 20260508103001 | 49 | 246 | 2.0 | 2.0 | 0.00 | 0.00 | 0.00 | 72 | 1010.7 |
| 20260508102500 | 49 | 197 | 1.0 | 1.0 | 0.00 | 0.00 | 0.00 | 73 | 1010.5 |
| 20260508101956 | 49 | 250 | 2.0 | 2.0 | 0.00 | 0.00 | 0.00 | 74 | 1010.5 |
| 20260508101454 | 49 | 200 | 1.0 | 1.0 | 0.00 | 0.00 | 0.00 | 74 | 1010.3 |
| 20260508100951 | 49 | 230 | 1.0 | 2.0 | 0.00 | 0.00 | 0.00 | 73 | 1010.5 |
| 20260508100450 | 49 | 255 | 2.0 | 3.0 | 0.00 | 0.00 | 0.00 | 75 | 1010.6 |
| 20260508095945 | 49 | 200 | 2.0 | 2.0 | 0.00 | 0.00 | 0.00 | 75 | 1010.5 |
| 20260508095443 | 49 | 246 | 3.0 | 3.0 | 0.00 | 0.00 | 0.00 | 73 | 1010.5 |
| 20260508094940 | 49 | 245 | 3.0 | 3.0 | 0.00 | 0.00 | 0.00 | 74 | 1010.5 |
| 20260508094437 | 49 | 194 | 2.0 | 2.0 | 0.00 | 0.00 | 0.00 | 72 | 1010.4 |
| 20260508093933 | 49 | 204 | 1.0 | 1.0 | 0.00 | 0.00 | 0.00 | 74 | 1010.5 |
| 20260508093431 | 49 | 232 | 2.0 | 2.0 | 0.00 | 0.00 | 0.00 | 74 | 1010.6 |
| 20260508092928 | 49 | 231 | 2.0 | 2.0 | 0.00 | 0.00 | 0.00 | 76 | 1010.4 |
| 20260508092426 | 49 | 193 | 2.0 | 2.0 | 0.00 | 0.00 | 0.00 | 75 | 1010.3 |
| 20260508091924 | 49 | 197 | 1.0 | 1.0 | 0.00 | 0.00 | 0.00 | 76 | 1010.3 |
| 20260508091421 | 48 | 232 | 1.0 | 2.0 | 0.00 | 0.00 | 0.00 | 81 | 1010.6 |
| 20260508090918 | 47 | 152 | 0.0 | 0.0 | 0.00 | 0.00 | 0.00 | 86 | 1010.4 |
| 20260508090417 | 48 | 149 | 0.0 | 0.0 | 0.00 | 0.00 | 0.00 | 86 | 1010.5 |
| 20260508085912 | 48 | 156 | 0.0 | 0.0 | 0.00 | 0.00 | 0.00 | 85 | 1010.4 |
| 20260508085409 | 49 | 154 | 0.0 | 0.0 | 0.00 | 0.00 | 0.00 | 83 | 1010.8 |
| 20260508084906 | 49 | 179 | 0.0 | 0.0 | 0.00 | 0.00 | 0.00 | 82 | 1010.8 |
| 20260508084402 | 49 | 192 | 0.0 | 0.0 | 0.00 | 0.00 | 0.00 | 81 | 1010.9 |
| 20260508083900 | 48 | 236 | 0.0 | 0.0 | 0.00 | 0.00 | 0.00 | 84 | 1010.7 |
| 20260508083358 | 49 | 153 | 0.0 | 0.0 | 0.00 | 0.00 | 0.00 | 86 | 1010.9 |
| 20260508082856 | 49 | 168 | 0.0 | 0.0 | 0.00 | 0.00 | 0.00 | 85 | 1010.8 |
| 20260508082355 | 49 | 168 | 0.0 | 0.0 | 0.00 | 0.00 | 0.00 | 83 | 1010.9 |
| 20260508081852 | 49 | 172 | 0.0 | 0.0 | 0.00 | 0.00 | 0.00 | 82 | 1010.9 |
| 20260508081348 | 49 | 172 | 0.0 | 0.0 | 0.00 | 0.00 | 0.00 | 82 | 1010.8 |
| 20260508080846 | 49 | 174 | 0.0 | 0.0 | 0.00 | 0.00 | 0.00 | 84 | 1011.0 |
| 20260508080343 | 50 | 181 | 0.0 | 0.0 | 0.00 | 0.00 | 0.00 | 84 | 1011.0 |
| 20260508075840 | 49 | 173 | 0.0 | 1.0 | 0.00 | 0.00 | 0.00 | 82 | 1011.3 |
| 20260508075337 | 50 | 219 | 1.0 | 2.0 | 0.00 | 0.00 | 0.00 | 83 | 1011.3 |
| 20260508074835 | 50 | 238 | 2.0 | 2.0 | 0.00 | 0.00 | 0.00 | 81 | 1011.3 |
| 20260508074332 | 50 | 243 | 3.0 | 3.0 | 0.00 | 0.00 | 0.00 | 80 | 1011.3 |
| 20260508073828 | 50 | 243 | 2.0 | 2.0 | 0.00 | 0.00 | 0.00 | 78 | 1011.5 |
| 20260508073327 | 50 | 238 | 2.0 | 2.0 | 0.00 | 0.00 | 0.00 | 76 | 1011.2 |
| 20260508072822 | 50 | 233 | 2.0 | 2.0 | 0.00 | 0.00 | 0.00 | 78 | 1011.3 |
| 20260508072319 | 50 | 234 | 2.0 | 2.0 | 0.00 | 0.00 | 0.00 | 76 | 1011.4 |
| 20260508071817 | 51 | 248 | 2.0 | 2.0 | 0.00 | 0.00 | 0.00 | 75 | 1011.5 |
| 20260508071315 | 51 | 240 | 3.0 | 3.0 | 0.00 | 0.00 | 0.00 | 75 | 1011.4 |
| 20260508070812 | 51 | 238 | 4.0 | 6.0 | 0.00 | 0.00 | 0.00 | 76 | 1011.5 |
| 20260508070311 | 51 | 248 | 4.0 | 5.0 | 0.00 | 0.00 | 0.00 | 74 | 1011.4 |
| 20260508065807 | 52 | 250 | 4.0 | 5.0 | 0.00 | 0.00 | 0.00 | 69 | 1011.5 |
| 20260508065307 | 52 | 254 | 4.0 | 5.0 | 0.00 | 0.00 | 0.00 | 68 | 1011.4 |
| 20260508064803 | 53 | 263 | 2.0 | 2.0 | 0.00 | 0.00 | 0.00 | 65 | 1011.4 |
| 20260508064301 | 53 | 256 | 3.0 | 3.0 | 0.00 | 0.00 | 0.00 | 63 | 1011.4 |
| 20260508063758 | 53 | 246 | 4.0 | 5.0 | 0.00 | 0.00 | 0.00 | 63 | 1011.4 |
| 20260508063256 | 53 | 245 | 4.0 | 5.0 | 0.00 | 0.00 | 0.00 | 63 | 1011.2 |
| 20260508062753 | 53 | 249 | 4.0 | 5.0 | 0.00 | 0.00 | 0.00 | 62 | 1011.5 |
| 20260508062250 | 53 | 243 | 4.0 | 5.0 | 0.00 | 0.00 | 0.00 | 62 | 1011.5 |
| 20260508061747 | 53 | 197 | 2.0 | 3.0 | 0.00 | 0.00 | 0.00 | 62 | 1011.5 |
| 20260508061244 | 53 | 249 | 3.0 | 3.0 | 0.00 | 0.00 | 0.00 | 64 | 1011.4 |
| 20260508060741 | 53 | 250 | 0.0 | 2.0 | 0.00 | 0.00 | 0.00 | 62 | 1011.4 |
| 20260508060239 | 53 | 253 | 3.0 | 3.0 | 0.00 | 0.00 | 0.00 | 65 | 1011.5 |
| 20260508055734 | 52 | 170 | 0.0 | 1.0 | 0.00 | 0.00 | 0.00 | 65 | 1011.4 |
| 20260508055231 | 52 | 192 | 1.0 | 1.0 | 0.00 | 0.00 | 0.00 | 65 | 1011.4 |
| 20260508054727 | 52 | 242 | 2.0 | 2.0 | 0.00 | 0.00 | 0.00 | 63 | 1011.4 |
| 20260508054226 | 52 | 174 | 0.0 | 0.0 | 0.00 | 0.00 | 0.00 | 65 | 1011.4 |
| 20260508053722 | 52 | 240 | 3.0 | 3.0 | 0.00 | 0.00 | 0.00 | 66 | 1011.4 |
| 20260508053220 | 52 | 214 | 1.0 | 2.0 | 0.00 | 0.00 | 0.00 | 64 | 1011.6 |
| 20260508052717 | 52 | 233 | 2.0 | 2.0 | 0.00 | 0.00 | 0.00 | 67 | 1011.6 |
| 20260508052214 | 51 | 226 | 2.0 | 2.0 | 0.00 | 0.00 | 0.00 | 69 | 1011.4 |
| 20260508051710 | 51 | 207 | 1.0 | 2.0 | 0.00 | 0.00 | 0.00 | 69 | 1011.3 |
| 20260508051205 | 50 | 192 | 0.0 | 0.0 | 0.00 | 0.00 | 0.00 | 75 | 1011.5 |
| 20260508050701 | 50 | 187 | 0.0 | 0.0 | 0.00 | 0.00 | 0.00 | 73 | 1011.3 |
| 20260508050159 | 50 | 237 | 0.0 | 0.0 | 0.00 | 0.00 | 0.00 | 73 | 1011.4 |
| 20260508045654 | 50 | 174 | 0.0 | 0.0 | 0.00 | 0.00 | 0.00 | 77 | 1011.5 |
| 20260508045153 | 50 | 190 | 0.0 | 0.0 | 0.00 | 0.00 | 0.00 | 75 | 1011.6 |
| 20260508044650 | 49 | 172 | 0.0 | 0.0 | 0.00 | 0.00 | 0.00 | 76 | 1011.6 |
| 20260508044146 | 49 | 199 | 0.0 | 0.0 | 0.00 | 0.00 | 0.00 | 80 | 1011.3 |
| 20260508043642 | 49 | 178 | 0.0 | 0.0 | 0.00 | 0.00 | 0.00 | 80 | 1011.4 |
| 20260508043140 | 49 | 187 | 0.0 | 0.0 | 0.00 | 0.00 | 0.00 | 82 | 1011.6 |
| 20260508042637 | 49 | 150 | 0.0 | 0.0 | 0.00 | 0.00 | 0.00 | 81 | 1011.6 |
| 20260508042134 | 50 | 165 | 0.0 | 0.0 | 0.00 | 0.00 | 0.00 | 80 | 1011.6 |
| 20260508041630 | 50 | 197 | 0.0 | 0.0 | 0.00 | 0.00 | 0.00 | 78 | 1011.4 |
| 20260508041127 | 50 | 185 | 0.0 | 0.0 | 0.00 | 0.00 | 0.00 | 79 | 1011.4 |